Ana Sayfa
METAR-TAF:

METAR-TAF

Havaalanları :

Edwards County Airport

Rocksprings, Teksas, Amerika Birleşik Devletleri

Enlem: 29-56-48N, Boylam: 100-10-25W, yükseklik: 723 m

Güncel hava durumu gözlemi

Rapor saat 01:35 UTC de 24 dakika önce yapıldı.
Rüzgar güneydan 4 kt
Sıcaklık 16°C
Nem 45%
Basınç 1016 hPa
Görüş mesafesi: 16.1 km
Açık gökyüzü

METAR: KECU 190135Z AUTO 17004KT 10SM CLR 16/04 A2999 RMK AO2

Saat: 19:59 (01:59 UTC)


TAF: eksik

4.000'den fazla havaalanı için hava durumu gözlemleri ve tahminleri (METAR ve TAF raporları).

Kullanılabilir istasyonlar harita üzerinde sarı ve kırmızı noktalarla gösterilir.

İstasyonun adını görmek için fareyi noktanın üzerinde gezdirin.

Sonrasında hava gözlem ve tahminlerini görmek için tıklayın.

Haritayı değiştirmek için: yaklaştırmak için siyah artı işaretli yeşil düğmeye ve uzaklaştırmak için de eksi işaretli düğmeye hızla tıklayın; bitişik haritalar için yeşil okları kullanın.


METAR-TAF: